Weather History for Sierra Vista, AZ

Change the Weather History Date:

Friday, October 19, 2012

  Actual Average Record
Temperature  
Mean Temperature 70 °F -  
Max Temperature 82 °F 75 °F 87 °F (2011)
Min Temperature 57 °F 53 °F 41 °F (2006)
Cooling Degree Days 4    
Growing Degree Days 20 (Base 50)    
Moisture  
Dew Point 40 °F    
Average Humidity 36    
Maximum Humidity 64    
Minimum Humidity 21    
Precipitation  
Precipitation 0.00 in - - ()
Sea Level Pressure  
Sea Level Pressure 29.91 in    
Wind  
Wind Speed 7 mph (WSW)    
Max Wind Speed 14 mph    
Max Gust Speed -    
Visibility 10 miles    
Events      
Averages and records for this station are not official NWS values.
T = Trace of Precipitation, MM = Missing Value Source: NWS Daily Summary

Daily Weather History Graph

Daily Weather History Graph

Search for Another Location

Airport:

Trip Planner

Search our weather history database for the weather conditions in past years. The results will help you decide how hot, cold, wet, or windy it might be!

Date:

Astronomy

Oct. 19, 2012 Rise Set
Actual Time 6:27 AM MST 5:44 PM MST
Civil Twilight 6:03 AM MST 6:08 PM MST
Nautical Twilight 5:34 AM MST 6:37 PM MST
Astronomical Twilight 5:06 AM MST 7:05 PM MST
Moon 11:01 AM MST (10/19) 9:38 PM MST (10/19)
Length of Visible Light 12h 05m
Length of Day
11h 16m
Waxing Crescent, 24% of the Moon is Illuminated
Oct 19
Waxing Crescent
Oct 21
First Quarter
Oct 29
Full
Nov 6
Last Quarter
Nov 13
New

Hourly Weather History & Observations

Time (MST) Temp. Dew Point Humidity Pressure Visibility Wind Dir Wind Speed Gust Speed Precip Events Conditions
12:55 AM 64.4 °F 46.4 °F 52% 29.96 in 10.0 mi West 10.4 mph - N/A   Mostly Cloudy
1:56 AM 63.0 °F 46.0 °F 54% 29.96 in 10.0 mi West 9.2 mph - N/A   Clear
2:56 AM 62.1 °F 46.0 °F 56% 29.94 in 10.0 mi West 6.9 mph - N/A   Clear
3:56 AM 60.1 °F 45.0 °F 57% 29.94 in 10.0 mi WNW 3.5 mph - N/A   Clear
4:56 AM 57.0 °F 45.0 °F 64% 29.96 in 10.0 mi Calm Calm - N/A   Clear
5:55 AM 57.2 °F 44.6 °F 63% 29.97 in 10.0 mi South 8.1 mph - N/A   Mostly Cloudy
6:55 AM 60.8 °F 42.8 °F 52% 29.97 in 10.0 mi Variable 3.5 mph - N/A   Mostly Cloudy
7:55 AM 66.2 °F 39.2 °F 37% 29.99 in 10.0 mi Calm Calm - N/A   Mostly Cloudy
8:55 AM 68.0 °F 39.2 °F 35% 30.00 in 10.0 mi Variable 3.5 mph - N/A   Mostly Cloudy
9:55 AM 71.6 °F 39.2 °F 31% 29.98 in 10.0 mi NNE 8.1 mph - N/A   Mostly Cloudy
10:55 AM 71.6 °F 39.2 °F 31% 29.96 in 10.0 mi Variable 3.5 mph - N/A   Scattered Clouds
11:55 AM 78.8 °F 39.2 °F 24% 29.92 in 10.0 mi Calm Calm - N/A   Scattered Clouds
12:55 PM 80.6 °F 39.2 °F 23% 29.92 in 10.0 mi East 4.6 mph - N/A   Scattered Clouds
1:55 PM 82.4 °F 39.2 °F 21% 29.86 in 10.0 mi NE 8.1 mph - N/A   Scattered Clouds
2:55 PM 82.4 °F 39.2 °F 21% 29.85 in 10.0 mi East 3.5 mph - N/A   Scattered Clouds
3:55 PM 82.4 °F 39.2 °F 21% 29.84 in 10.0 mi ESE 4.6 mph - N/A   Scattered Clouds
4:55 PM 82.4 °F 39.2 °F 21% 29.84 in 10.0 mi Variable 3.5 mph - N/A   Scattered Clouds
5:55 PM 75.2 °F 39.2 °F 27% 29.85 in 10.0 mi SE 4.6 mph - N/A   Mostly Cloudy
6:55 PM 71.6 °F 39.2 °F 31% 29.86 in 10.0 mi West 6.9 mph - N/A   Mostly Cloudy
7:55 PM 73.4 °F 35.6 °F 25% 29.86 in 10.0 mi WSW 11.5 mph - N/A   Mostly Cloudy
8:55 PM 73.4 °F 33.8 °F 23% 29.86 in 10.0 mi WSW 11.5 mph - N/A   Mostly Cloudy
9:55 PM 71.6 °F 35.6 °F 27% 29.87 in 10.0 mi West 12.7 mph - N/A   Mostly Cloudy
10:55 PM 69.8 °F 33.8 °F 27% 29.86 in 10.0 mi West 11.5 mph - N/A   Mostly Cloudy
11:55 PM 66.2 °F 35.6 °F 32% 29.86 in 10.0 mi West 13.8 mph - N/A   Scattered Clouds